www.pogodaiklimat.ru

Погода и климат >> Архив погоды >> Бельгия >> Флорен


ПОГОДА во Флорене

  • Прогноз погоды во Флорене
  • Монитор погоды во Флорене

АРХИВ ПОГОДЫ во Флорене

Время (UTC), дата Ветер
(напр.,м/с)
 
Видим.   Явления Облачность Т
(С)
Тd
(С)
f
(%)
Тe
(С)
Тes
(С)
Комфортность P
(гПа)
Po
(гПа)
Тmin
(С)
Tmax
(С)
R
(мм)
R24
(мм)
S
(см)
13 13.06 Ю 6
{12}
20 км в посл. час ливневой дождь 6/4 840 м
[Cu hum Ci fib]
+16.4 +9.3 63 +15 +19 1011.8 978.7
14 13.06 Ю 5
{12}
15 км в посл. час ливневой дождь 6/4 840 м
[Cu hum Ci fib]
+16.1 +11.6 75 +15 +19 1012.0 978.7
15 13.06 Ю 5
{12}
15 км {ливн. осадки, дождь} 6/4 900 м
[Cu hum Ci fib]
+16.4 +9.9 65 +16 +19 1011.8 978.7
16 13.06 Ю 7
{13}
20 км {дождь, морось} н/о +15.3 +10.1 71 +14 +14 1012.3 979.1
17 13.06 Ю 5
{11}
20 км н/о +16.2 +10.7 70 +15 +15 1011.3 978.2
18 13.06 Ю 5
{13}
20 км {дождь, морось} н/о +15.8 +10.2 69 +15 +15 1012.0 978.8 +17.1 0.4
19 13.06 Ю 4
{8}
20 км н/о +15.6 +9.0 65 +15 +15 1012.1 978.8
20 13.06 Ю 3
{7}
20 км слаб. дождь н/о +14.4 +9.7 73 +14 +14 1012.6 979.2
21 13.06 ЮВ 3
{8}
20 км {дождь} н/о +13.6 +9.7 77 +12 +12 1013.6 980.0
22 13.06 ЮВ 3
{4}
20 км н/о +13.1 +9.5 79 +12 +12 1013.8 980.2
23 13.06 ЮВ 3
{4}
20 км н/о +12.3 +9.3 82 +11 +11 1014.0 980.3
00 14.06 нст 1
{8}
20 км {дождь} н/о +12.1 +9.1 82 +12 +12 1013.8 980.2 0.0
01 14.06
{2}
20 км н/о +11.6 +8.9 83 1013.3 979.6
02 14.06
{2}
20 км н/о +11.8 +8.9 82 1013.1 979.3
03 14.06 нст 1
{2}
20 км н/о +10.3 +8.7 90 +10 +10 1013.1 979.2
04 14.06
{2}
20 км н/о +12.0 +9.0 82 1013.7 980.0
05 14.06
{4}
20 км н/о +12.3 +9.3 82 1014.5 980.7
06 14.06 ЮЗ 7
{10}
10 км слаб. дождь 9/6 900 м
[Sc Ac trans Ci fib]
+13.4 +10.3 81 +11 +11 1014.7 981.1 +10.1 0.3
07 14.06 Ю 3
{10}
10 км слаб. дождь 9/9 1500 м
[Sc Ac trans Ci fib]
+13.4 +10.4 82 +12 +13 1014.0 980.4
08 14.06 ЮВ 5
{7}
20 км в посл. час дождь 6/6 1350 м
[Sc Ac trans Ci fib]
+15.0 +11.8 81 +14 +15 1014.2 980.9
09 14.06 Ю 5
{10}
20 км 6/6 1350 м
[Sc Ac trans Ci fib]
+17.2 +10.9 66 +17 +19 1014.5 981.4
10 14.06 Ю 5
{9}
20 км 6/6 2000 м
[Sc Ac trans Ci fib]
+18.9 +11.6 63 +19 +23 1014.5 981.5
11 14.06 Ю 5
{8}
20 км 8/4 1020 м
[Cu Sc Ac trans Ci fib]
+19.6 +11.7 60 +21 +24 комфорт 1014.6 981.7
12 14.06 Ю 4
{10}
20 км 8/4 960 м
[Cu Sc Ac trans Ci fib]
+21.3 +13.0 59 +24 +28 комфорт 1014.2 981.6 0.4
13 14.06 Ю 2
{8}
20 км 5/3 1020 м
[Cu Sc Ac trans Ci fib]
+22.4 +13.0 55 +25 +35 комфорт 1013.6 981.1
14 14.06 ЮВ 2
{6}
20 км 5/3 1020 м
[Cu Sc Ac trans Ci fib]
+22.0 +11.5 51 +24 +32 комфорт 1013.2 980.6
15 14.06 нст 1
{8}
20 км н/о +23.5 +12.0 48 +25 +25 комфорт 1012.5 980.1
16 14.06
{4}
20 км н/о +22.9 +11.6 49 1012.2 979.7
17 14.06
{3}
20 км н/о +22.6 +12.5 53 1011.7 979.3
18 14.06 С 2
{8}
20 км н/о +21.7 +13.8 61 +25 +25 комфорт 1011.7 979.2 +24.0 0.4
19 14.06
{3}
20 км н/о +20.4 +13.4 64 1011.7 979.1
20 14.06 С 2
{4}
20 км н/о +19.3 +13.7 70 +21 +21 комфорт 1012.1 979.3
21 14.06 нст 1
{4}
20 км н/о +19.5 +13.1 66 +22 +22 комфорт 1012.5 979.6
22 14.06 ЮЗ 2
{7}
19 км слаб. дождь н/о +16.8 +15.0 89 +17 +17 1012.3 979.3
23 14.06
{3}
19 км слаб. дождь {морось} н/о +16.7 +15.2 91 1010.8 977.9
00 15.06 ЮВ 2
{7}
20 км {дождь, морось} н/о +16.5 +14.8 90 +17 +17 1011.3 978.2 3
01 15.06
{3}
4500 м дождь н/о +16.1 +14.9 93 1011.1 977.9
02 15.06 Ю 2
{4}
6000 м дождь н/о +15.8 +14.9 94 +16 +16 1010.8 977.7
03 15.06 Ю 2
{4}
4400 м сильн. дождь н/о +15.5 +14.6 94 +15 +15 1011.2 978.0
04 15.06 З 4
{9}
5000 м слаб. дождь н/о +13.5 +12.7 95 +12 +12 1012.1 978.6
05 15.06
{6}
4700 м дымка {дождь} н/о +13.3 +12.5 95 1012.3 978.8
06 15.06 нст 1
{9}
3100 м слаб. дождь {морось} н/о +13.8 +12.9 94 +14 +14 1012.7 979.2 +13.1 12
07 15.06 ЮЗ 2
{3}
13 км {дождь, морось} н/о +15.2 +14.4 95 +15 +15 1013.2 979.9
08 15.06 ЮЗ 5
{8}
19 км {дождь} н/о +16.0 +14.5 91 +15 +15 1013.7 980.5
09 15.06 ЮЗ 7
{11}
20 км {дождь, морось} н/о +17.9 +13.6 76 +17 +17 1014.1 981.0
10 15.06 ЮЗ 6
{11}
20 км н/о +18.5 +11.1 62 +18 +18 1014.6 981.6
11 15.06 ЮЗ 7
{10}
20 км н/о +19.5 +9.2 51 +20 +20 1015.1 982.2
12 15.06 ЮЗ 6
{11}
20 км {дождь, морось} н/о +20.2 +8.7 48 +21 +21 комфорт 1015.2 982.4 0.1
13 15.06 ЮЗ 6
{10}
20 км н/о +19.9 +10.0 53 +21 +21 комфорт 1015.3 982.5
14 15.06 ЮЗ 6
{11}
20 км н/о +20.2 +10.0 52 +21 +21 комфорт 1015.6 982.7
15 15.06 ЮЗ 6
{11}
20 км н/о +20.3 +8.6 47 +21 +21 комфорт 1015.7 982.8
16 15.06 ЮЗ 6
{10}
20 км н/о +19.7 +8.7 49 +20 +20 1015.7 982.7
17 15.06 ЮЗ 5
{10}
20 км н/о +20.1 +9.6 51 +21 +21 комфорт 1015.6 982.7
18 15.06 ЮЗ 5
{11}
20 км н/о +19.3 +9.5 53 +20 +20 1016.0 983.0 +21.1 0.1
19 15.06 ЮЗ 2
{7}
20 км н/о +18.5 +9.5 56 +19 +19 1016.2 983.2
20 15.06 ЮЗ 2
{6}
20 км н/о +16.5 +9.1 62 +17 +17 1017.0 983.7
21 15.06 ЮЗ 4
{7}
20 км н/о +15.4 +8.2 62 +15 +15 1017.6 984.1
22 15.06 ЮЗ 4
{6}
20 км н/о +15.5 +8.8 64 +15 +15 1018.0 984.5
23 15.06 ЮЗ 3
{5}
20 км н/о +15.1 +9.0 67 +14 +14 1018.6 985.1
00 16.06 нст 1
{7}
20 км н/о +14.0 +9.6 75 +14 +14 1019.2 985.5
01 16.06 Ю 2
{4}
20 км н/о +13.3 +9.2 76 +13 +13 1019.2 985.4
02 16.06 Ю 3
{4}
20 км н/о +12.8 +9.3 79 +11 +11 1019.5 985.6
03 16.06 ЮЗ 3
{8}
20 км н/о +12.1 +8.9 81 +11 +11 1019.7 985.7
04 16.06 Ю 4
{7}
20 км н/о +11.9 +9.2 84 +10 +10 1019.8 985.9
05 16.06 Ю 4
{8}
20 км н/о +12.6 +9.9 84 +11 +11 1020.2 986.2
06 16.06 Ю 4
{8}
20 км н/о +13.9 +10.9 82 +12 +12 1020.2 986.5 +11.8
07 16.06 ЮЗ 5
{9}
20 км н/о +14.6 +11.5 82 +13 +13 1020.6 986.9
08 16.06 ЮЗ 5
{8}
20 км н/о +15.5 +11.6 78 +14 +14 1020.7 987.3
09 16.06 Ю 5
{9}
20 км н/о +15.7 +11.3 75 +15 +15 1021.2 987.6
10 16.06 Ю 5
{8}
20 км н/о +16.2 +10.9 71 +15 +15 1021.5 987.9
11 16.06 ЮЗ 6
{9}
20 км н/о +17.2 +10.2 63 +16 +16 1021.3 987.9
12 16.06 ЮЗ 4
{9}
18 км н/о +18.2 +9.6 57 +18 +18 1021.1 987.8
13 16.06 Ю 4
{8}
20 км н/о +19.4 +11.1 59 +21 +21 комфорт 1021.0 987.8
14 16.06 Ю 5
{8}
20 км н/о +18.7 +10.4 58 +19 +19 1021.2 988.0
15 16.06 Ю 3
{8}
20 км н/о +19.8 +10.5 55 +21 +21 комфорт 1020.7 987.7
16 16.06 Ю 5
{8}
20 км н/о +19.9 +9.8 52 +21 +21 комфорт 1020.6 987.5
17 16.06 ЮЗ 5
{7}
20 км н/о +19.8 +10.8 56 +21 +21 комфорт 1020.7 987.7
18 16.06 ЮЗ 3
{8}
19 км н/о +19.4 +10.8 57 +21 +21 комфорт 1021.0 987.9 +20.5
19 16.06 ЮЗ 2
{5}
20 км н/о +18.6 +11.0 61 +20 +20 1021.1 987.8
20 16.06
{3}
20 км н/о +17.2 +11.7 70 1021.2 987.9
21 16.06 нст 1
{5}
20 км н/о +15.0 +11.3 79 +16 +16 1021.8 988.2
22 16.06
{1}
20 км н/о +14.1 +11.1 82 1022.0 988.2
23 16.06
{1}
20 км н/о +14.1 +11.2 83 1021.7 988.0
00 17.06 нст 1
{5}
20 км н/о +14.0 +11.4 84 +14 +14 1021.7 988.0
01 17.06 В 2
{2}
20 км н/о +11.8 +10.6 92 +11 +11 1021.8 987.9
02 17.06
{2}
20 км н/о +12.5 +10.8 89 1021.7 987.7
03 17.06 В 2
{2}
20 км н/о +11.9 +10.6 92 +11 +11 1021.6 987.5
04 17.06
{2}
10 км 1/0
[Ci fib]
+12.2 +10.6 90 1021.5 987.5
05 17.06 В 2
{2}
10 км 1/0
[Ci fib]
+12.8 +11.0 89 +12 +13 1021.3 987.5
06 17.06 нст 1
{2}
20 км 3/0
[Ci fib]
+15.2 +11.3 78 +16 +19 1021.1 987.5 +11.5
07 17.06 ЮВ 2
{3}
20 км 3/0
[Ci fib]
+17.7 +11.8 68 +18 +23 1021.0 987.6
08 17.06 ЮВ 2
{4}
20 км 3/0
[Ci fib]
+19.0 +12.0 64 +20 +29 1020.7 987.5
09 17.06 Ю 3
{6}
20 км 3/1 960 м
[Cu hum Ci fib]
+19.9 +11.9 60 +22 +31 комфорт 1020.3 987.4
10 17.06 ЮЗ 2
{5}
20 км 4/3 1080 м
[Cu hum Ci fib]
+20.4 +12.7 61 +23 +34 комфорт 1019.8 986.9
11 17.06 Ю 2
{7}
20 км 4/3 1320 м
[Cu Sc Ci fib]
+21.3 +11.4 53 +23 +35 комфорт 1019.5 986.6
12 17.06 нст 2
{7}
20 км 3/3 1440 м
[Cu Sc Ci fib]
+23.3 +11.9 49 +26 +38 жарко 1018.8 986.2
13 17.06 ЮВ 2
{4}
20 км 4/3 1500 м
[Sc Ci fib]
+22.8 +10.8 47 +25 +36 комфорт 1018.3 985.7
14 17.06 СВ 2
{4}
20 км 4/3 1500 м
[Sc Ci fib]
+24.1 +12.1 47 +26 +35 жарко 1017.7 985.2
15 17.06 нст 1
{4}
20 км 4/3 1500 м
[Sc Ci fib]
+23.5 +12.3 49 +25 +34 комфорт 1017.6 985.0
16 17.06
{3}
20 км н/о +23.8 +11.0 45 1017.2 984.7
17 17.06
{2}
20 км н/о +23.4 +11.9 48 1016.8 984.4
18 17.06 З 2
{4}
20 км н/о +23.5 +12.7 51 +26 +26 жарко 1016.6 984.1 +25.0
19 17.06
{3}
20 км н/о +22.1 +12.9 56 1016.7 984.1
20 17.06
{2}
20 км н/о +20.2 +13.4 65 1016.8 984.0
21 17.06 нст 1
{4}
20 км н/о +18.8 +13.1 69 +21 +21 комфорт 1017.1 984.1
22 17.06
{2}
20 км н/о +18.2 +12.8 71 1017.2 984.1
23 17.06 З 2
{2}
20 км н/о +17.3 +12.9 75 +18 +18 1017.2 984.1
00 18.06 нст 1
{4}
20 км н/о +17.0 +12.5 75 +18 +18 1017.0 983.8
01 18.06
{2}
20 км н/о +16.8 +12.2 74 1016.6 983.4
02 18.06
{1}
20 км н/о +16.9 +11.8 72 1016.2 982.9
03 18.06 нст 1
{2}
20 км н/о +16.5 +11.7 73 +17 +17 1016.0 982.7
04 18.06
{1}
20 км н/о +15.3 +11.8 80 1016.0 982.5
05 18.06
{1}
20 км 8/1 1500 м
[Sc Ci fib]
+16.3 +13.2 82 1015.7 982.5
06 18.06 нст 1
{2}
20 км 8/1 1500 м
[Sc Ci fib]
+18.0 +14.9 82 +19 +22 1015.3 982.4 +14.8
07 18.06
{2}
20 км 8/0
[Ci fib]
+19.6 +14.5 72 1015.5 982.6
08 18.06
{3}
20 км 8/0
[Ci fib]
+20.8 +15.1 70 1014.7 982.1
09 18.06 нст 1
{3}
20 км 9/1 720 м
[Cu hum Ac trans Ci fib]
+22.2 +16.0 68 +26 +34 душно 1014.5 981.9
10 18.06
{2}
20 км 9/1 840 м
[Cu hum Ac trans Ci fib]
+23.4 +13.7 54 1014.2 981.8
11 18.06
{3}
20 км 8/1 1050 м
[Cu hum Ac trans Ci fib]
+23.8 +13.7 53 1013.8 981.5
12 18.06 нст 1
{3}
20 км 8/1 1260 м
[Cu hum Ac trans Ci fib]
+24.0 +13.5 52 +26 +38 жарко 1013.5 981.2
13 18.06 Ю 2
{6}
20 км 8/1 1260 м
[Cu hum Ac trans Ci fib]
+25.1 +12.5 45 +27 +36 жарко 1013.1 980.8
14 18.06 Ю 2
{4}
20 км 8/1 1260 м
[Cu hum Ac trans Ci fib]
+25.2 +11.5 42 +27 +34 жарко 1012.6 980.4
15 18.06 Ю 2
{6}
20 км н/о +25.2 +13.6 49 +27 +27 жарко 1012.0 979.8
16 18.06
{4}
20 км н/о +24.7 +10.9 42 1011.6 979.3
17 18.06
{3}
20 км н/о +25.4 +12.4 44 1011.1 978.9
18 18.06 нст 1
{6}
20 км н/о +24.8 +12.2 45 +26 +26 жарко 1010.8 978.7 +26.5
19 18.06 Ю 2
{4}
20 км н/о +23.9 +11.9 47 +26 +26 жарко 1011.0 978.7
20 18.06
{2}
20 км н/о +22.5 +12.4 53 1011.3 978.9
21 18.06 нст 1
{4}
20 км н/о +21.1 +12.5 58 +23 +23 комфорт 1011.2 978.6
22 18.06
{1}
20 км н/о +17.8 +13.0 73 1011.0 978.1
23 18.06
{2}
20 км н/о +17.7 +12.5 72 1010.3 977.4
00 19.06 СВ 2
{4}
20 км н/о +18.8 +12.4 66 +20 +20 1009.7 976.9
01 19.06 В 2
{3}
20 км н/о +18.5 +12.9 70 +20 +20 1009.0 976.2
02 19.06 В 2
{3}
20 км н/о +18.4 +13.1 71 +19 +19 1008.5 975.7
03 19.06 В 2
{3}
20 км н/о +18.3 +13.4 73 +19 +19 1008.1 975.3
04 19.06 ЮВ 3
{5}
20 км н/о +18.1 +13.4 74 +18 +18 1007.5 974.7
05 19.06 ЮВ 4
{6}
20 км 8/0
[Ac cast Ci fib]
+19.3 +13.7 70 +21 +21 комфорт 1007.0 974.4
06 19.06 ЮЗ 2
{6}
20 км 9/1 900 м
[Cu med, cong Ac cast Ci fib]
+20.2 +14.2 68 +23 +24 комфорт 1007.3 974.8 +16.7
07 19.06 Ю 2
{5}
20 км 9/3 900 м
[Cu med, cong Ac cast Ci sp]
+21.2 +14.5 66 +24 +26 комфорт 1007.2 974.8
08 19.06 Ю 5
{7}
20 км 9/3 900 м
[Cu med, cong Ac cast Ci sp]
+21.1 +15.1 69 +24 +26 комфорт 1007.8 975.4
09 19.06 Ю 6
{9}
20 км 9/3 900 м
[Cu med, cong Ac cast Ci sp]
+23.4 +15.6 62 +28 +30 душно 1008.0 975.7
10 19.06 Ю 3
{8}
15 км в посл. час ливневой дождь 9/3 600 м
[Cb calv Ac cast Ci sp]
+21.9 +15.1 65 +25 +31 комфорт 1008.2 975.8
11 19.06 Ю 2
{5}
20 км 9/3 900 м
[Cu med, cong Ac cast Ci sp]
+23.5 +14.2 56 +26 +33 жарко 1008.0 975.8
12 19.06 Ю 5
{9}
20 км {ливн. осадки} 9/1 1260 м
[Cu med, cong Ac cast Ci sp]
+25.5 +12.5 44 +27 +32 жарко 1007.7 975.6 0.1
13 19.06 Ю 5
{8}
20 км 9/1 1260 м
[Cu med, cong Ac cast Ci sp]
+24.6 +14.1 52 +27 +31 жарко 1007.5 975.4
14 19.06 Ю 4
{10}
10 км слаб. ливневой дождь 9/1 1260 м
[Cu med, cong Ac cast Ci sp]
+22.2 +15.1 64 +26 +30 душно 1007.7 975.4
15 19.06 ЮВ 4
{10}
7000 м гроза, ливневой дождь 9/5 1050 м
[Cb cap Ac cast Ci sp]
+16.4 +14.8 90 +16 +18 1007.8 974.9
16 19.06 З 4
{21}
20 км слаб. дождь н/о +15.8 +14.4 91 +15 +15 1009.1 976.0
17 19.06 ЮЗ 2
{5}
20 км {дождь} н/о +19.0 +14.8 77 +21 +21 комфорт 1008.1 975.4
18 19.06 Ю 2
{21}
18 км {дождь} н/о +19.0 +15.7 81 +21 +21 комфорт 1008.2 975.6 +26.1 13
19 19.06 ЮВ 2
{4}
19 км н/о +17.6 +16.5 93 +18 +18 1008.7 975.8
20 19.06 З 3
{7}
20 км {дождь} н/о +16.0 +14.0 88 +16 +16 1009.7 976.5
21 19.06 нст 1
{7}
20 км {дождь} н/о +15.1 +14.0 93 +16 +16 1009.7 976.6
22 19.06 ЮЗ 3
{5}
20 км н/о +15.0 +13.6 91 +14 +14 1010.6 977.3
23 19.06 ЮЗ 3
{5}
14 км н/о +14.5 +13.8 96 +13 +13 1011.1 977.7
00 20.06 ЮЗ 3
{7}
11 км {дождь} н/о +14.2 +13.5 96 +13 +13 1011.2 977.9 1
01 20.06 ЮЗ 4
{5}
7000 м н/о +14.1 +13.4 96 +13 +13 1011.2 977.8
02 20.06 ЮЗ 3
{7}
4700 м дымка н/о +14.0 +13.2 95 +13 +13 1011.6 978.2
03 20.06 ЮЗ 3
{7}
5000 м н/о +13.6 +12.8 95 +12 +12 1011.8 978.4
04 20.06 ЮЗ 2
{5}
5000 м н/о +13.6 +12.6 94 +13 +13 1012.2 978.8
05 20.06
{3}
6000 м н/о +13.8 +12.9 94 1012.3 978.9
06 20.06 Ю 2
{7}
5000 м в посл. час морось {дождь} 10/9 120 м
[St]
+14.3 +12.8 91 +14 +14 1012.6 979.2 +13.6 1
07 20.06 ЮЗ 2
{4}
8000 м в посл. час дождь {морось} 10/9 180 м
[St]
+15.1 +13.5 90 +15 +15 1012.6 979.3
08 20.06 ЮЗ 3
{5}
9000 м в посл. час дождь {морось} 10/9 180 м
[Sc]
+15.5 +13.2 86 +15 +15 1012.8 979.6
09 20.06 ЮЗ 4
{5}
8000 м дождь {морось} 10/9 240 м
[Sc]
+15.1 +13.6 91 +14 +14 1013.1 979.8
10 20.06 ЮЗ 3
{5}
8000 м слаб. дождь {морось} 10/9 240 м
[Sc]
+15.4 +14.1 92 +15 +15 1013.3 980.1
11 20.06 З 4
{6}
10 км в посл. час дождь {морось} 10/9 270 м
[Cu Sc]
+16.0 +13.2 83 +15 +16 1013.7 980.4
12 20.06 З 4
{7}
20 км {дождь, морось} 10/9 450 м
[Cu Sc]
+16.0 +12.8 81 +15 +16 1014.0 980.7 0.5
13 20.06 ЮЗ 4
{6}
20 км 9/6 450 м
[Cu Sc Ac trans Ci fib]
+17.6 +11.8 69 +17 +20 1013.7 980.7

 

Местоположение метеостанции Флорен (Бельгия): широта 50.23 долгота 4.65 высота над уровнем моря 299 м.

В архиве по умолчанию представлена погода во Флорене за последнюю неделю. Архивные данные за месяц целиком и за предыдущие месяцы, начиная с января 2011 года, Вы можете получить, выбрав интересующий диапазон дат из раскрывающегося списка и нажав кнопку "Ввод!".


*Определитесь, кто Вы:
робот инопланетянин человек

Внимание! Время в таблицах - всемирное. Для получения местного времени необходимо прибавить поправку, которая равна 1 ч.

Смотрите также архив погоды в соседних городах и на ближайших метеорологических станциях:

Погода в Дурбе (Бельгия) (15 км)
Погода в Шарлеруа (Бельгия) (30 км)
Погода в Гумане (Бельгия) (43 км)
Погода в Эрнаже (Бельгия) (49 км)
Погода в Чарвилле (Франция) (50 км)
Погода в Сент-Губерте (Бельгия) (58 км)
Погода в Бовешене (Бельгия) (58 км)
Погода в Уккеле (Бельгия) (67 км)
Погода в Шьевре (Бельгия) (69 км)
Погода в Бьерсете (Бельгия) (73 км)

Пояснения к столбцам:

Ветер - указаны скорость ветра в м/с - средняя за 10 мин, порывы в срок и между сроками (в фигурных скобках) и направление, откуда дует ветер: С - северный, СВ - северо-восточный, В - восточный, ЮВ - юго-восточный, Ю - южный, ЮЗ - юго-западный, З - западный, СЗ - северо-западный.
Видимость - горизонтальная дальность видимости в метрах или километрах. При видимости от 1 до 10 км при отсутствии осадков обычно наблюдается дымка, при ухудшении видимости до 1 км и менее - туман. В сухую погоду видимость может ухудшаться дымом, пылью или мглою.
Явления - указаны атмосферные явления, наблюдавшиеся в срок или в последний час перед сроком; фигурными скобками обозначены явления, наблюдавшиеся между сроками (за 1-3 часа до срока); квадратными скобками обозначены град или гололедные отложения с указанием их диаметра в мм.
Облачность - указаны через наклонную черту общая и нижняя облачность в баллах и высота нижней границы облаков в метрах; квадратными скобками обозначены формы облаков: Ci - перистые, Cs - перисто-слоистые, Cc - перисто-кучевые, Ac - высококучевые, As - высокослоистые, Sc - слоисто-кучевые, Ns - слоисто-дождевые, Cu - кучевые, Cb - кучево-дождевые. Подробнее классификацию облаков см. в Атласе облаков (PDF).
T - Температура воздуха - температура, измеренная на высоте 2 м над землей.
Td - Температура точки росы - температура, при понижении до которой содержащийся в воздухе водяной пар достигнет насыщения.
f - Относительная влажность воздуха - влажноcть воздуха, измеренная на высоте 2 м над землей.
Te - Эффективная температура - температура, которую ощущает одетый по сезону человек в тени. Характеристика душности погоды. При расчете учитывается влияние влажности воздуха и скорости ветра на теплоощущения человека.
Tes - Эффективная температура на солнце - температура, которую ощущает человек, с поправкой на солнечный нагрев. Характеристика знойности погоды. Зависит от высоты солнца над горизонтом, облачности и скорости ветра. Ночью, в пасмурную погоду, а также при ветре 12 м/с и более поправка равна нулю.
P - Атмосферное давление - приведенное к уровню моря атмосферное давление.
Po - Атмосферное давление - измеренное на уровне метеостанции атмосферное давление.
Tmin - Минимальная температура - минимум температуры воздуха на высоте 2 м над землей.
Tmax - Максимальная температура - максимум температуры воздуха на высоте 2 м над землей.
R - Количество осадков - Количество выпавших осадков за период времени, мм. При наведении курсора мыши на число - период времени, за который выпало указанное количество осадков.
R24 - Количество осадков - Количество выпавших осадков за 24 часа, мм.
S - Снежный покров - Высота снежного покрова, см. При наведении курсора мыши на число - состояние снежного покрова и степень покрытия местности в баллах.